Regional Weather Roundup
Issued by NWS

Home | Current Version | Previous Version | Graphics & Text | Print | Product List | Glossary On
Versions: 1 2 3 4 5 6 7 8 9 10 11 12 13 14 15 16 17 18 19 20 21 22 23 24 25 26 27 28 29 30 31 32 33 34 35 36 37 38 39 40 41 42 43 44 45 46 47 48 49 50
545
ASUS44 KJAN 302303
RWRMS

MISSISSIPPI HOURLY WEATHER ROUNDUP
NATIONAL WEATHER SERVICE JACKSON MS
600 PM CDT MON MAR 30 2015

NOTE: "FAIR: INDICATES FEW OR NO CLOUDS BELOW 12,000 FEET WITH NO
SIGNIFICANT WEATHER AND/OR OBSTRUCTIONS TO VISIBILITY.

MSZ001>002-007>008-010>013-018>021-025>028-034>036-310000-
NORTHWEST MISSISSIPPI

CITY           SKY/WX    TMP DP  RH WIND       PRES   REMARKS
CLARKSDALE     FAIR      72  54  53 NW5       30.13F
CLEVELAND      FAIR      74  51  44 CALM      30.11F
GREENWOOD      SUNNY     76  48  37 W7        30.10S
GREENVILLE     NOT AVBL
OLIVE BRANCH   SUNNY     72  41  33 CALM      30.11F
OXFORD         FAIR      72  39  30 NW6       30.12F
TUNICA         CLEAR     70  48  46 S9        30.12F
$$

MSZ003>006-009-014>017-022>024-029>033-037>039-310000-
NORTHEAST MISSISSIPPI

CITY           SKY/WX    TMP DP  RH WIND       PRES   REMARKS
COLUMBUS AFB   SUNNY     74  45  35 W8        30.10S
CORINTH          N/A     70  41  35 CALM      30.10F
GOLDN TRIANGLE MOSUNNY   75  48  38 NW8       30.10F
STARKVILLE     FAIR      75  46  35 CALM      30.10S
TUPELO         SUNNY     73  39  29 CALM      30.10F
$$

MSZ040-058-310000-
CENTRAL MISSISSIPPI

CITY           SKY/WX    TMP DP  RH WIND       PRES   REMARKS
JACKSON INTL   PTSUNNY   78  58  49 W8        30.10S
JACKSON HAWKNS PTSUNNY   76  57  51 W9        30.11S
MERIDIAN KEY   MOSUNNY   75  57  53 W8        30.11S
MERIDIAN NAS   MOSUNNY   77  57  49 W6        30.09F
RAYMOND        FAIR      77  72  83 SW5       30.10S
VICKSBURG      CLOUDY    74  62  66 E6        30.10S
$$

MSZ059>079-310000-
SOUTH MISSISSIPPI

CITY           SKY/WX    TMP DP  RH WIND       PRES   REMARKS
BROOKHAVEN     FAIR      81  54  39 SW8       30.12S
HATTIESBURG    MOSUNNY   81  53  37 W7        30.11S
MCCOMB         PTSUNNY   80  55  42 SW10      30.11S
NATCHEZ        MOSUNNY   79  55  44 W10       30.10F
PINE BELT      MOSUNNY   81  52  36 W6        30.12S
$$

MSZ080>082-310000-
COASTAL MISSISSIPPI

CITY           SKY/WX    TMP DP  RH WIND       PRES   REMARKS
BILOXI         MOSUNNY   73  66  77 SW16      30.11F
PASCAGOULA     SUNNY     74  64  71 S9        30.12F
GULFPORT       SUNNY     75  64  68 S12       30.11F
$$



USA.gov is the U.S. government's official web portal to all federal, state and local government web resources and services.